Wind_Speed
10 11 11 11 11 11 11 10 11 11 11 11 12 12 12 12 12 13 14 14 15 16 16 15 15 14 14 15 14 14 13 12 11 12 13 13 13 14 13 13 14 14 14
10 11 11 11 11 11 10 10 11 11 11 11 12 12 11 12 12 12 13 14 14 15 15 15 14 13 13 13 12 13 13 13 12 12 12 12 13 13 13 13 13 14 14
10 10 11 11 11 11 10 11 11 11 11 12 12 12 12 12 12 12 13 14 14 15 15 14 14 14 13 12 12 13 13 12 13 13 12 12 12 12 13 13 13 13 13
11 11 11 11 11 11 11 10 10 11 11 11 12 12 13 13 13 13 13 13 13 14 14 14 14 14 14 13 13 13 13 13 13 13 12 12 12 12 13 12 13 13 13
12 12 12 12 12 12 11 11 11 11 11 12 13 13 13 13 13 14 14 13 13 13 13 13 14 14 14 14 14 13 14 13 13 12 12 12 12 13 13 13 13 13 13
12 12 12 12 12 12 12 12 12 12 12 13 13 14 14 13 14 14 14 15 14 14 13 13 14 15 15 15 15 13 13 13 13 13 13 12 12 13 13 13 13 13 13
13 13 12 12 12 12 13 13 13 13 14 14 14 14 15 15 15 15 15 15 14 15 15 15 15 15 14 15 14 13 14 13 13 13 13 13 13 14 14 13 13 13 13
13 13 13 14 14 14 14 14 14 14 15 15 15 15 15 16 16 16 16 15 15 15 15 15 16 16 16 15 15 14 14 14 14 13 13 13 13 13 14 14 14 14 14
14 14 14 14 14 15 15 15 15 16 16 16 17 17 17 17 17 17 16 16 16 16 15 15 15 16 16 16 16 15 15 14 14 14 13 14 14 14 14 14 15 15 15
14 14 14 15 15 15 16 16 17 17 17 18 18 18 18 18 18 17 17 16 16 16 16 16 16 16 17 17 17 16 16 15 15 15 14 15 15 14 15 15 16 16 16
15 15 16 16 17 17 17 18 18 19 19 19 18 18 17 17 17 17 17 16 16 16 17 17 17 17 17 17 18 17 17 17 16 16 16 16 16 16 16 16 17 17 17
16 16 17 18 18 18 18 18 18 19 19 18 18 18 18 18 17 17 17 17 17 18 18 17 18 18 18 18 18 18 19 18 18 18 18 17 17 18 18 18 18 18 18
17 17 17 18 18 18 19 19 18 19 18 18 18 18 18 18 18 18 18 18 18 19 19 19 19 19 19 19 19 19 19 19 19 19 19 19 19 19 19 19 19 19 19
18 18 18 19 19 19 19 19 19 19 19 19 19 19 19 19 19 19 19 19 19 19 20 20 20 20 20 20 20 20 20 20 20 20 20 20 20 20 21 21 21 21 20
19 19 19 20 19 19 19 19 19 20 20 20 20 20 20 20 20 20 20 20 19 19 20 21 21 22 21 22 21 21 21 21 21 21 22 22 21 21 22 22 22 22 22
21 20 20 20 20 19 19 20 20 20 21 21 21 21 20 21 21 21 22 22 21 21 21 21 22 22 22 22 23 22 22 22 23 23 23 23 22 22 22 22 22 22 23
22 22 21 22 21 21 21 22 22 22 22 22 21 21 21 21 22 22 23 22 23 23 23 23 23 23 23 23 24 24 24 24 24 24 24 24 23 23 23 23 23 23 23
22 23 22 23 23 23 23 23 23 23 24 23 23 23 22 22 23 24 24 24 24 24 24 24 24 25 25 24 24 24 25 25 25 26 26 25 25 25 25 25 25 25 25
23 23 24 24 24 24 25 24 24 24 24 24 24 24 24 24 24 24 24 24 24 24 24 24 24 24 25 25 26 26 26 26 27 27 27 27 27 27 26 26 26 26 26
24 24 25 25 25 25 26 26 25 25 25 25 25 25 25 25 25 25 25 25 25 25 25 24 24 25 25 26 27 27 27 27 28 28 28 28 28 29 29 28 28 28 27
25 25 25 25 25 26 26 27 27 26 26 26 26 26 26 26 26 26 26 26 26 26 26 26 26 26 26 27 27 28 28 28 28 28 28 28 29 29 29 29 29 29 29
26 26 26 26 26 27 27 27 28 27 27 27 27 27 27 28 28 28 28 27 27 28 28 28 28 28 27 28 28 28 29 29 29 29 29 29 30 29 29 29 29 30 30
26 26 27 27 27 27 27 27 27 27 27 28 28 27 27 28 28 28 29 28 29 29 29 29 29 29 28 29 29 29 30 30 29 29 30 30 30 29 30 30 30 31 31
28 28 28 29 29 29 28 28 28 28 29 29 29 29 29 29 29 29 29 29 29 30 30 29 29 30 30 30 30 31 31 31 31 30 31 30 30 31 31 31 31 32 32
30 30 30 30 30 30 30 29 29 29 30 30 30 30 31 31 31 31 30 30 30 30 30 30 30 30 30 30 30 30 31 31 31 31 32 32 32 32 32 32 33 33 33
31 31 31 31 31 31 32 31 31 31 30 30 30 30 31 31 31 32 32 31 31 31 32 31 31 30 31 30 30 30 31 31 32 32 32 32 32 33 32 33 34 33 34
Wind_Direction
283 280 282 281 280 279 277 276 275 275 273 271 272 273 272 270 269 268 267 266 268 270 270 269 271 273 271 270 265 263 264 264 265 264 261 260 258 257 258 257 258 261 262
282 283 281 280 278 274 273 275 276 276 274 273 272 272 271 270 270 270 269 268 270 268 265 266 270 270 270 267 262 262 263 264 263 264 262 261 259 258 257 259 261 263 263
283 283 281 280 276 272 272 273 276 276 275 275 273 273 274 274 275 275 274 269 267 266 263 266 267 266 264 259 260 261 263 265 262 262 260 260 261 260 259 262 266 265 265
281 282 281 279 276 273 272 274 277 278 277 277 276 275 275 276 278 280 279 276 271 266 264 267 268 264 259 256 260 263 266 266 263 262 262 261 260 258 257 258 261 263 265
283 283 282 278 278 276 275 275 276 276 277 279 280 278 276 275 276 278 279 276 273 270 266 265 265 264 259 258 259 257 260 260 260 261 262 261 260 257 257 255 260 261 263
284 283 283 280 276 275 276 277 276 276 278 282 283 281 279 277 278 276 276 274 272 271 268 267 265 261 259 261 262 256 255 255 256 257 258 259 260 259 261 259 259 261 263
281 282 282 280 277 277 278 279 278 279 280 282 283 283 282 281 280 279 276 273 274 270 267 266 262 258 260 263 265 264 260 258 261 262 263 263 265 266 265 263 264 265 265
282 280 281 281 278 279 280 279 279 280 281 282 282 281 281 280 279 279 275 273 273 274 272 269 263 262 261 263 264 267 266 267 267 267 265 266 267 266 265 262 264 265 265
283 282 281 281 281 280 280 281 281 281 281 281 281 280 279 278 277 277 274 273 272 272 271 269 267 267 267 266 267 268 268 269 268 267 266 266 266 266 266 265 266 266 267
284 283 282 282 282 282 281 280 281 281 280 281 282 281 279 278 277 277 275 273 271 270 271 268 267 266 265 266 266 266 265 266 266 266 266 268 268 268 268 268 267 267 268
284 284 282 282 284 284 282 280 280 281 280 280 281 282 280 279 278 276 273 271 270 270 270 269 268 267 267 266 265 263 263 263 264 266 267 267 267 269 268 268 268 267 268
282 283 281 283 284 284 282 281 282 282 283 282 281 280 280 279 277 275 273 272 271 271 270 271 270 269 267 267 266 264 263 261 262 265 266 266 266 268 270 269 268 268 268
282 282 282 282 283 283 282 281 283 283 283 284 282 280 279 277 275 274 273 273 273 273 272 271 271 271 268 267 266 264 263 261 262 263 265 266 267 268 269 269 269 269 269
282 282 280 281 281 281 281 281 281 284 284 284 282 280 278 276 275 275 274 273 272 274 273 273 272 271 270 267 265 264 263 262 262 263 265 267 269 269 269 270 269 269 269
284 284 281 280 280 281 280 281 281 283 282 283 282 279 278 276 276 275 275 274 273 274 274 274 273 271 270 267 265 265 265 263 263 265 265 267 269 269 270 271 270 269 269
283 284 283 282 282 281 280 282 282 281 282 281 279 278 277 276 275 274 273 273 273 275 275 274 274 272 271 269 266 265 266 266 267 267 267 268 269 270 270 269 270 270 270
281 282 281 281 282 282 281 281 281 281 279 280 279 276 276 276 276 275 273 273 273 275 275 276 276 274 272 270 266 266 267 267 268 269 269 269 270 270 270 270 268 268 269
280 280 280 281 281 280 280 280 280 279 278 277 278 276 275 277 277 276 275 274 275 275 275 274 274 273 272 271 269 269 267 267 267 267 267 268 269 269 270 270 269 270 271
282 281 281 281 281 280 279 279 277 277 277 277 277 276 275 276 277 276 275 274 273 273 272 272 273 273 272 271 271 270 269 268 267 266 266 265 267 268 270 270 271 271 271
283 282 283 283 282 280 279 277 276 276 275 275 276 276 275 274 275 273 273 273 273 273 274 275 275 275 274 273 272 271 270 269 268 266 265 265 267 268 269 270 271 271 271
284 282 282 282 283 282 280 278 277 276 275 274 274 274 275 274 274 274 274 274 273 273 274 277 277 276 275 272 270 269 269 269 268 267 265 265 266 268 268 269 271 271 271
285 284 282 282 282 282 281 278 277 277 276 275 273 272 272 272 272 273 275 274 274 274 274 277 276 277 275 273 271 270 270 269 268 267 266 266 266 267 268 269 271 272 272
286 285 283 282 281 281 280 279 277 275 276 275 274 273 272 272 272 273 273 274 274 274 274 274 275 276 276 274 271 269 268 268 268 267 267 266 266 267 267 268 270 272 272
286 286 285 283 281 280 279 278 277 275 276 276 275 274 273 272 271 271 272 273 274 275 275 274 274 274 273 273 271 270 269 268 268 268 268 267 267 268 268 269 271 272 273
285 285 284 284 282 280 279 278 277 276 275 274 274 274 274 273 272 271 272 273 273 273 273 274 273 272 272 272 273 272 270 268 268 268 268 268 268 269 269 271 271 272 273
287 285 284 282 281 280 279 278 277 276 275 274 273 275 275 274 272 272 272 272 272 272 272 273 272 271 270 271 272 273 272 270 268 268 270 270 269 269 269 270 271 272 272
Height
5856 5855 5855 5854 5853 5853 5852 5852 5851 5851 5851 5850 5850 5849 5849 5848 5848 5848 5847 5846 5846 5845 5845 5845 5844 5844 5843 5841 5841 5841 5842 5843 5843 5843 5843 5843 5844 5844 5845 5845 5845 5845 5846
5854 5853 5852 5851 5851 5850 5850 5849 5848 5848 5848 5847 5847 5846 5846 5845 5845 5845 5844 5843 5842 5842 5842 5841 5841 5840 5839 5837 5837 5838 5839 5840 5840 5840 5840 5840 5841 5841 5842 5842 5843 5843 5843
5851 5850 5850 5849 5848 5847 5847 5847 5846 5845 5845 5844 5844 5843 5843 5842 5842 5841 5841 5840 5840 5839 5839 5838 5837 5837 5836 5834 5835 5835 5836 5836 5837 5837 5837 5838 5838 5838 5839 5839 5840 5840 5840
5848 5847 5847 5846 5845 5845 5844 5844 5843 5843 5842 5842 5841 5840 5840 5839 5838 5838 5837 5837 5836 5836 5835 5834 5834 5834 5833 5833 5832 5833 5833 5834 5834 5834 5834 5834 5835 5835 5836 5836 5836 5836 5837
5845 5845 5844 5843 5843 5842 5841 5841 5840 5840 5839 5839 5838 5837 5836 5836 5835 5834 5834 5833 5833 5832 5832 5831 5831 5831 5830 5830 5830 5830 5830 5830 5831 5831 5831 5831 5832 5832 5832 5832 5833 5833 5833
5842 5841 5841 5840 5839 5839 5839 5838 5837 5837 5836 5836 5835 5834 5833 5832 5831 5830 5830 5829 5829 5829 5828 5828 5827 5827 5827 5827 5827 5827 5827 5827 5828 5828 5828 5828 5829 5829 5829 5829 5829 5830 5830
5839 5838 5837 5837 5836 5836 5835 5835 5834 5833 5833 5832 5831 5830 5829 5828 5827 5826 5826 5825 5825 5825 5824 5824 5824 5823 5823 5823 5823 5823 5824 5824 5825 5825 5825 5825 5825 5825 5825 5825 5826 5826 5827
5835 5835 5834 5833 5833 5832 5832 5831 5830 5830 5829 5828 5827 5826 5825 5825 5823 5823 5822 5821 5821 5821 5820 5820 5820 5820 5820 5820 5820 5820 5820 5820 5821 5821 5821 5822 5822 5822 5822 5822 5822 5823 5823
5832 5831 5830 5830 5829 5828 5828 5827 5826 5825 5825 5824 5823 5822 5821 5820 5819 5818 5817 5817 5817 5816 5816 5816 5816 5816 5816 5816 5816 5816 5817 5817 5817 5818 5818 5818 5818 5818 5818 5818 5819 5819 5819
5828 5827 5827 5826 5825 5824 5823 5822 5821 5821 5820 5819 5817 5816 5815 5814 5814 5813 5813 5812 5812 5811 5811 5811 5811 5811 5811 5812 5812 5812 5813 5813 5813 5814 5814 5814 5814 5814 5814 5814 5815 5815 5815
5824 5823 5822 5822 5821 5820 5818 5817 5816 5815 5814 5813 5812 5811 5810 5809 5808 5808 5808 5808 5807 5807 5807 5806 5806 5807 5807 5807 5807 5808 5808 5809 5809 5810 5810 5810 5810 5810 5810 5810 5810 5810 5810
5820 5819 5818 5817 5816 5815 5813 5812 5811 5810 5809 5807 5806 5806 5805 5804 5803 5803 5803 5802 5802 5802 5802 5802 5801 5802 5802 5802 5802 5803 5803 5804 5804 5805 5805 5805 5805 5806 5806 5805 5805 5805 5806
5815 5814 5813 5812 5811 5809 5808 5807 5806 5805 5803 5802 5801 5800 5800 5799 5798 5798 5798 5797 5797 5797 5797 5796 5796 5796 5796 5797 5797 5798 5798 5798 5799 5800 5800 5800 5800 5800 5800 5800 5800 5800 5800
5810 5809 5808 5806 5805 5804 5803 5802 5801 5800 5798 5797 5796 5795 5794 5794 5793 5793 5792 5792 5792 5792 5791 5791 5790 5790 5791 5791 5791 5792 5792 5793 5793 5794 5794 5795 5795 5795 5795 5795 5795 5795 5795
5805 5803 5802 5801 5800 5798 5797 5796 5795 5794 5793 5791 5790 5789 5789 5788 5787 5787 5787 5786 5786 5786 5786 5785 5784 5784 5784 5785 5785 5786 5787 5787 5787 5788 5788 5789 5789 5789 5789 5789 5789 5789 5789
5799 5798 5797 5795 5794 5793 5792 5791 5789 5788 5787 5786 5785 5784 5783 5782 5782 5781 5781 5780 5780 5780 5779 5779 5778 5778 5778 5778 5779 5779 5780 5781 5781 5781 5782 5782 5783 5783 5783 5783 5783 5783 5783
5794 5792 5791 5790 5788 5787 5786 5784 5783 5782 5781 5780 5779 5778 5777 5776 5775 5775 5774 5774 5773 5773 5773 5772 5771 5771 5771 5771 5772 5772 5773 5774 5774 5775 5775 5775 5776 5776 5776 5776 5776 5776 5776
5788 5786 5785 5783 5782 5781 5780 5778 5777 5776 5774 5774 5772 5772 5771 5770 5769 5768 5768 5767 5767 5766 5766 5766 5765 5764 5764 5764 5765 5765 5766 5766 5767 5767 5768 5768 5769 5769 5769 5769 5769 5769 5769
5781 5779 5778 5777 5776 5774 5773 5771 5770 5769 5767 5766 5765 5764 5764 5763 5762 5761 5761 5760 5759 5759 5758 5758 5758 5758 5757 5757 5757 5758 5758 5759 5759 5760 5760 5761 5761 5761 5761 5761 5761 5761 5762
5774 5772 5771 5769 5768 5767 5765 5764 5763 5762 5760 5759 5758 5757 5756 5756 5755 5754 5753 5753 5752 5752 5751 5751 5751 5751 5750 5750 5750 5750 5751 5751 5751 5751 5752 5752 5753 5753 5753 5753 5753 5753 5754
5767 5765 5763 5762 5760 5759 5757 5756 5755 5753 5752 5751 5750 5749 5749 5748 5747 5746 5746 5745 5745 5745 5744 5744 5744 5743 5742 5742 5742 5742 5742 5743 5743 5743 5743 5744 5744 5744 5744 5745 5745 5745 5745
5759 5757 5756 5754 5753 5751 5749 5748 5746 5745 5744 5743 5742 5741 5741 5740 5739 5738 5738 5737 5737 5737 5736 5736 5736 5735 5735 5734 5734 5733 5734 5734 5735 5735 5734 5735 5735 5736 5736 5736 5736 5736 5736
5752 5750 5748 5746 5745 5743 5741 5739 5738 5737 5736 5734 5733 5733 5732 5731 5731 5730 5730 5729 5729 5728 5728 5728 5727 5727 5726 5726 5725 5725 5725 5725 5725 5726 5725 5727 5727 5727 5727 5727 5727 5727 5727
5743 5741 5740 5738 5736 5734 5732 5731 5729 5728 5727 5726 5725 5724 5723 5723 5722 5722 5721 5721 5720 5720 5719 5719 5718 5718 5717 5716 5715 5715 5715 5715 5716 5717 5716 5717 5717 5718 5718 5718 5717 5717 5717
5735 5733 5731 5728 5726 5725 5723 5721 5720 5719 5718 5717 5716 5715 5714 5714 5713 5713 5713 5712 5712 5711 5710 5709 5709 5708 5708 5707 5706 5706 5706 5706 5707 5707 5707 5707 5708 5708 5708 5708 5707 5707 5706
5725 5723 5721 5719 5717 5715 5713 5712 5710 5709 5708 5708 5707 5706 5705 5704 5704 5703 5703 5703 5702 5702 5701 5700 5700 5699 5699 5698 5697 5697 5696 5696 5697 5697 5697 5697 5698 5698 5699 5699 5697 5696 5696